CAPE
1731 2095 2483 2511 2552 2499 2483 2422 2402 2392 2430 2438 2412 2317 2126 1986 1953 2081 2048 1880 1661 1543 1131 993 1292 1477 1587 1618 1650 1691 1729 1746 1690 1612 1451 1839 1905 2212 2127 2099 1973 2039 2094 1909 1972 1952 1802 1781 1758 1717 1578 1545 1419 1638 1680 1737 1763 1696 1474 1331 1306 1385 1370 1292 1182 1128 1029 854 732 665 660 1010 743 712 616 652 720 718 1107 1366 1485 1452 1437 1456 1524
1773 1782 2125 2385 2493 2523 2540 2532 2479 2428 2394 2383 2330 2278 2195 2148 2110 2016 2064 1974 1826 1434 959 1009 1140 1401 1481 1492 1493 1519 1669 1752 1689 1571 1749 2141 2245 2195 2124 1994 1990 2115 2012 2116 2177 2096 2065 1968 1831 1743 1700 1648 1488 1744 1599 1516 1582 1629 1551 1290 1379 1487 1353 1099 1007 888 805 741 676 519 516 435 463 515 699 632 508 665 823 1002 1093 1277 1485 1662 1757
1826 1773 1909 2157 2360 2420 2472 2513 2502 2462 2382 2335 2279 2242 2193 2216 2175 2075 1966 1739 1254 964 724 562 1086 1318 1333 1297 1296 1282 1471 1680 1800 1977 2092 2269 2378 2547 2258 2166 2065 1908 1858 1860 1936 1942 1910 1880 1888 1858 1744 1482 1509 1431 1450 1436 1362 1404 1343 1195 1164 1136 1019 976 922 809 754 717 538 491 469 459 494 490 437 416 605 653 835 1017 1073 1136 1260 1339 1474
1931 1845 1889 2056 2249 2352 2395 2442 2463 2450 2395 2296 2222 2146 2232 2236 1982 1805 1572 896 1132 1062 929 1038 566 1146 1254 1221 1169 2165 2677 2632 2388 2343 2412 2474 2549 2478 2378 2354 2220 1990 1801 1756 1692 1614 1553 1544 1514 1363 1294 1184 1148 1254 1305 1322 1331 1228 1051 966 1051 1096 1132 1082 1038 813 705 604 577 571 573 471 508 466 443 526 574 610 758 695 594 610 664 845 1152
2042 1898 1886 1942 2030 2214 2358 2386 2388 2370 2341 2294 2199 2148 2084 1753 1272 1089 985 910 1085 1270 1551 2068 1697 1267 1713 2208 2465 2645 2830 2884 2823 2795 2755 2675 2589 2522 2466 2285 2098 1873 1844 1797 1958 1757 1506 1340 1302 1154 1224 1240 1205 1182 1162 1156 1290 974 920 1048 1196 1232 1140 1051 935 790 690 608 582 582 518 425 402 454 517 623 652 599 610 663 720 721 544 722 898
2151 1995 1960 1977 1967 1993 2208 2300 2266 2185 2181 2176 2124 2024 1730 1242 844 944 1054 887 946 1437 1692 2129 1995 1347 1701 2339 2553 2724 2869 2884 2826 2790 2705 2627 2523 2456 2356 2274 2108 1896 1889 1786 1500 1314 1228 1285 1303 1285 1324 1176 1015 946 909 1065 962 934 1000 1237 1219 1050 1049 1012 907 826 726 645 566 566 480 452 460 493 531 613 532 489 606 762 836 644 302 166 150
2355 2201 2147 2067 2016 2005 2046 2090 2066 2013 1960 1933 1905 1827 1690 1580 1303 859 1099 1222 1275 1467 1591 2274 1727 1594 1613 2038 2401 2628 2733 2819 2743 2712 2691 2662 2581 2461 2344 2076 2030 1880 1603 1506 1454 1354 1128 1184 1305 1269 1161 1025 1024 1060 965 995 984 891 929 934 1036 1012 990 950 859 792 770 741 690 569 448 427 443 404 367 333 337 509 763 926 750 405 118 82 109
2454 2072 2105 2100 2075 2011 1917 1893 1960 1956 1843 1718 1743 1670 1683 1690 1553 1310 1095 1194 1350 1608 2035 2462 2086 1899 1845 1667 1708 1984 2150 2090 1893 1742 2176 2444 2410 2320 2136 1949 1806 1652 1326 1124 1031 1064 1115 1201 1252 1200 1200 983 978 1086 1204 1190 1086 1104 1066 1075 1137 1056 1004 996 936 916 881 805 659 537 455 423 363 327 374 399 406 350 526 806 612 441 316 126 78
1643 2044 2096 2038 2087 2087 2039 1940 1890 1917 2103 1957 2140 1944 1710 1754 1675 1519 1497 1310 1439 1706 2106 2442 2584 2437 2167 2041 1811 1602 1370 1172 1267 1684 2397 2413 2302 2028 1796 1651 1403 1195 1113 1319 1477 1398 1350 1267 1203 1212 1381 1609 1674 1535 1793 1734 1393 1295 1200 1156 1179 1184 1159 1048 1042 1005 883 748 630 561 454 294 253 313 349 372 416 434 524 648 629 425 295 50 73
1603 1821 1963 2070 2178 2271 2307 2268 2233 2386 2256 2161 2163 2016 1859 1774 1696 1631 1568 1503 1664 1833 2137 2307 2176 2100 1995 2000 1872 1639 1647 1720 2089 2238 2077 1748 1712 1753 1586 1333 1107 1056 1344 1487 1430 1279 1153 1274 1601 1601 1415 1533 1384 1266 1207 1298 1573 1560 1391 1273 1206 1123 1033 1013 1078 1018 909 818 683 532 481 419 307 309 286 283 349 565 601 580 378 100 28 23 5
1551 1431 1920 1684 1708 1997 2167 2315 2347 2693 2470 2267 2166 2005 1893 1838 1776 1738 1634 1920 1909 1876 2039 2173 2123 2152 2113 2099 2138 2053 2016 1832 2460 1760 1925 2199 1825 1576 1534 1553 1522 1502 1466 1156 960 1154 1138 1157 1144 973 768 509 410 260 336 387 342 408 597 979 1851 1477 1230 1017 938 933 1007 880 624 442 364 315 276 179 66 205 484 551 498 344 44 6 0 0 0
1296 1322 1095 1156 1516 1710 1574 1504 1734 2024 2703 2366 2084 2125 2238 2139 2077 1990 1946 1857 2261 2231 2122 2125 2223 2257 2241 2156 2025 1846 1876 1965 1690 1574 1753 2272 2337 1895 1692 1760 1670 1372 1200 1121 1127 1188 956 876 612 492 475 344 6 0 3 99 162 487 878 1100 1197 1475 1921 1517 1280 1178 1125 922 575 293 264 341 139 8 32 149 167 43 113 192 152 0 0 0 0
1236 1211 1324 1442 1610 1683 1714 1472 1551 1860 2370 2421 2199 2163 2408 2509 2376 2234 2028 2262 2478 2301 2385 2444 2368 2441 2410 2267 2180 2082 1944 1732 1565 1417 1747 1977 2047 1958 1773 1802 1448 1411 1518 1478 1370 1211 900 589 44 0 0 29 0 0 0 0 47 428 714 661 717 1429 1539 1505 1232 1108 1020 1022 718 343 218 248 11 4 24 14 14 0 0 0 0 0 0 0 0
1160 1333 1458 1664 1630 1904 1659 1702 1931 1786 1949 2295 2332 2174 2222 2281 2074 1868 1770 2499 2815 2523 2373 2441 2396 2323 2259 2231 2213 2056 1838 1628 1561 1322 1437 1740 1857 1707 1393 1273 1274 1350 1432 1104 990 1054 768 521 99 6 0 0 0 0 0 0 0 0 416 627 757 1124 1355 1230 1092 924 844 837 724 385 80 37 0 0 0 0 0 0 0 0 0 0 0 0 0
1335 1371 1691 1701 1736 2028 1786 1806 1731 1654 1671 1787 2006 2124 2085 1933 1840 1976 2125 2334 2650 2391 2302 2462 2308 2267 2229 2175 1966 1690 1472 1543 1474 975 727 1185 1570 1869 1418 1546 1584 1486 656 196 708 917 646 236 34 0 0 0 0 0 0 0 0 4 59 260 460 650 767 644 724 537 703 70 26 7 0 23 51 41 0 0 0 0 0 0 0 0 0 0 0
1451 1555 1715 1693 1575 1918 1882 1761 1860 1929 2057 2088 2132 2326 2169 2075 2140 2231 2418 2500 2516 2493 2484 2312 2184 2186 2050 1876 1568 1332 1420 1359 863 754 805 1201 1540 1797 1781 1570 1386 814 396 43 462 228 97 7 0 0 0 0 0 0 3 47 0 0 0 0 60 161 422 417 42 78 103 0 0 0 0 67 80 92 9 0 1 2 0 0 0 0 0 0 0
1734 1868 1920 1960 1772 1903 1977 1690 1601 1727 1811 1917 1872 2093 2090 2004 2110 2199 2188 2149 2194 2190 2345 2256 2128 1974 1802 1498 1440 1381 1289 829 794 813 850 1029 1588 1792 1704 1446 1117 626 327 297 0 0 0 0 0 0 0 0 0 0 1 0 0 0 0 0 0 0 0 0 0 26 0 0 0 0 2 0 19 28 20 4 23 28 0 0 0 0 0 0 0
2049 1928 1624 1506 1504 1685 1976 1932 1608 1542 1467 1482 1550 1487 1596 1699 1855 1975 1964 1966 2016 2120 2158 2072 1999 1860 1530 1428 1413 1035 777 720 734 794 916 1094 1271 1380 1354 1365 1041 539 346 325 146 196 80 1 0 0 0 0 0 0 0 0 0 0 0 0 0 0 0 0 0 7 16 2 2 2 2 68 38 72 44 26 118 208 0 2 4 0 0 0 0
1939 1828 1550 1411 1560 1725 1838 1819 1698 1558 1366 1076 1160 1157 1425 1594 1697 1881 2004 2018 2015 1939 1914 1858 1739 1610 1462 1426 1133 730 673 694 740 761 997 1251 1196 1086 965 876 642 425 354 246 179 0 0 17 4 0 0 0 0 0 0 0 0 0 0 0 0 0 0 0 0 0 0 0 0 0 0 4 8 0 0 0 20 212 8 5 2 0 0 1 0
1632 1561 1619 1619 1615 1792 1879 1844 1742 1638 1610 1191 995 1066 1114 1502 1718 1703 1759 1852 1842 1680 1611 1594 1550 1578 1519 1460 1265 698 626 642 632 648 682 672 685 713 620 548 499 448 436 312 212 0 0 0 1 0 0 0 0 0 0 0 0 0 0 0 0 0 0 0 0 0 0 0 1 0 0 0 0 0 0 0 0 4 20 18 22 39 32 14 4
1790 1746 1694 1660 1532 1640 1794 1831 1732 1621 1430 1248 1122 1050 1149 1050 1322 1448 1616 1714 1618 1524 1325 1351 1362 1313 1224 1128 780 502 465 497 475 512 511 522 567 645 642 494 444 417 365 306 314 0 0 0 0 0 0 0 0 0 0 0 0 0 0 0 0 0 0 0 0 0 0 0 1 0 1 0 0 1 1 1 0 0 0 2 5 13 50 78 54
2046 1939 1791 1718 1629 1681 1835 1857 1680 1470 1301 1114 1047 983 842 1067 1245 1303 1503 1666 1386 1192 1357 1161 1148 1100 798 518 362 268 355 403 402 441 472 485 514 474 481 383 400 406 403 333 102 0 0 0 0 0 0 0 0 0 0 0 0 0 0 0 0 0 0 0 0 0 0 0 0 0 0 0 0 0 0 0 0 0 0 0 0 0 0 36 93
1518 1845 1836 1605 1543 1590 1844 2054 1918 1556 1347 1141 1071 1072 1045 1170 1216 1375 1406 1343 1284 1230 1192 1136 1128 919 594 392 237 0 303 371 420 474 493 495 378 468 509 484 497 397 154 0 0 0 0 0 0 0 0 0 0 0 0 0 0 0 0 0 0 0 0 0 0 0 0 0 0 0 0 0 0 0 0 0 0 0 0 0 0 0 0 0 20
1612 1552 1558 1509 1564 1576 1616 1737 1668 1362 1210 1113 1164 1240 1160 1261 1294 1451 1405 1179 1049 1054 1163 1227 996 769 474 0 0 0 0 206 252 182 0 0 0 0 346 349 258 66 13 0 0 0 0 0 0 0 0 0 0 0 0 0 0 0 0 0 0 0 0 0 0 0 0 0 0 0 0 0 0 0 0 0 0 0 0 0 0 0 0 0 0
1656 1728 1603 1540 1491 1458 1502 1320 1181 1247 1200 1246 1344 1390 1433 1367 1320 1325 1555 1280 1024 942 1226 1118 938 540 0 0 0 0 0 0 0 0 0 0 0 0 0 0 0 0 16 10 26 0 0 0 0 0 6 12 0 0 0 0 0 0 0 0 0 0 0 0 0 0 0 0 0 0 0 0 0 0 0 0 0 0 0 0 0 0 0 0 0
1395 1504 1520 1446 1303 1187 1057 1183 1304 1278 1397 1428 1562 1506 1597 1331 1249 1455 1382 1084 850 958 1014 944 545 261 0 0 0 0 0 0 0 19 198 72 0 0 0 66 167 132 49 0 5 0 6 4 1 13 19 7 0 0 0 0 0 0 0 0 0 0 0 0 0 0 0 0 0 0 0 0 0 0 0 0 0 0 0 0 0 0 0 0 0
1339 1402 1444 1343 1186 1222 1378 1323 1247 1260 1332 1335 1483 1549 1707 1447 1336 1367 1177 1029 870 1008 947 648 410 218 0 0 0 0 0 164 235 192 0 0 0 0 0 0 0 0 0 0 0 0 12 18 25 1 0 0 0 0 0 0 0 0 0 0 0 0 0 0 0 0 0 0 0 0 0 0 0 0 0 0 0 0 0 0 0 0 0 0 0
1181 1288 1220 1206 1442 1540 1625 1462 1370 1442 1440 1560 1526 1454 1540 1438 1336 1238 1178 1033 1032 1096 834 552 382 234 6 7 0 0 289 356 370 0 0 0 0 0 0 0 0 0 0 0 110 214 183 29 4 0 0 0 0 0 0 0 0 0 0 0 0 0 0 0 0 0 0 0 0 0 0 0 0 0 0 0 0 0 0 0 0 0 0 0 0
1184 1302 1413 1452 1571 1781 1745 1601 1572 1581 1676 1548 1464 1485 1402 1240 1346 1379 1310 1249 1138 1124 942 612 444 266 52 0 0 38 351 336 0 0 0 0 0 0 0 0 0 0 0 16 65 70 42 14 4 0 0 0 0 0 0 0 0 0 0 0 0 0 0 0 0 0 0 0 0 0 0 0 0 0 0 0 0 0 0 0 0 0 0 0 0
1299 1333 1440 1530 1552 1829 1887 1671 1635 1647 1590 1514 1512 1472 1431 1368 1299 1308 1385 1374 1212 1126 960 620 499 440 492 492 473 425 338 0 0 0 0 0 0 0 0 0 0 0 0 3 0 0 4 10 6 2 0 0 0 0 0 0 0 0 0 0 0 0 0 0 0 0 0 0 0 0 0 0 0 0 0 0 0 0 0 0 0 0 0 0 0
1168 1067 1224 1463 1460 1641 1784 1724 1572 1466 1409 1345 1243 1263 1372 1386 1350 1240 1327 1288 1216 1047 830 721 725 705 670 558 460 317 0 0 0 0 0 0 0 0 0 0 0 0 0 0 0 0 0 0 0 0 0 0 0 0 0 0 0 0 0 0 0 0 0 0 0 0 0 0 0 0 0 0 0 0 0 0 0 0 0 0 0 0 0 0 0
1267 954 1092 1416 1328 1553 1632 1623 1504 1326 1256 1214 1288 1278 1302 1271 1097 1052 1082 1112 1086 1052 1026 1048 990 842 670 467 51 0 0 0 0 0 0 0 0 0 0 0 0 0 0 0 0 0 0 0 0 0 0 0 0 0 0 0 0 0 0 0 0 0 0 0 0 0 0 0 0 0 0 0 0 0 0 0 0 0 0 0 0 0 0 0 0
1184 962 1160 1491 1508 1452 1458 1452 1427 1372 1421 1419 1354 1132 1049 1017 909 894 914 1042 1010 1121 1014 966 918 791 442 71 0 0 0 0 0 0 0 0 0 0 0 0 0 0 0 0 0 0 0 0 0 0 0 0 0 0 0 0 0 0 0 0 0 0 0 0 0 0 0 0 0 0 0 0 0 0 0 0 0 0 0 0 0 0 0 0 0
982 822 1109 1447 1455 1392 1411 1434 1503 1499 1461 1339 1075 963 962 954 948 898 942 984 926 794 707 769 557 241 37 67 0 0 0 0 0 0 0 0 0 0 0 0 0 0 0 0 0 0 0 0 0 0 0 0 0 0 0 0 0 0 0 0 0 0 0 0 0 0 0 0 0 0 0 0 0 0 0 0 0 0 0 0 0 0 0 0 0
810 749 1179 1492 1524 1361 1237 1274 1373 1310 1209 1103 940 871 888 986 1042 1006 963 906 859 798 671 425 242 99 2 0 0 0 0 0 0 0 0 0 0 0 0 0 0 0 0 0 0 0 0 0 0 0 0 0 0 0 0 0 0 0 0 0 0 0 0 0 0 0 0 0 0 0 0 0 0 0 0 0 0 0 0 0 0 0 0 0 0
683 858 1205 1382 1415 1249 1124 1280 1193 1104 1063 1014 861 777 969 1104 1091 1025 925 828 654 527 413 249 0 0 0 0 0 0 0 0 0 0 0 0 0 0 0 0 0 0 0 0 0 0 0 0 0 0 0 0 0 0 0 0 0 0 0 0 0 0 0 0 0 0 0 0 0 0 0 0 0 0 0 0 0 0 0 0 0 0 6 4 12
707 925 1092 1108 1136 1058 1128 1215 1151 1044 1036 941 874 900 1024 1042 966 896 837 740 664 494 234 40 0 0 0 31 31 0 0 0 0 0 0 0 0 0 0 0 0 0 0 0 0 0 0 0 0 0 0 0 0 0 0 0 0 0 0 0 0 0 0 0 0 0 0 0 0 0 0 0 0 0 0 0 0 0 0 0 0 5 15 23 30
718 832 925 1046 1028 1034 1041 1059 977 952 953 1002 1008 1053 1052 1034 916 853 789 639 426 218 121 101 73 65 0 0 0 0 0 0 0 0 0 0 0 0 0 0 0 0 0 0 0 0 0 0 0 0 0 0 0 0 0 0 0 0 0 0 0 0 0 0 0 0 0 0 0 0 0 0 0 0 0 0 0 0 0 0 0 2 4 4 7
846 843 894 984 891 851 866 866 863 913 952 964 1044 1088 1078 958 824 689 498 329 208 157 120 101 15 0 0 0 0 0 0 0 0 0 0 0 0 0 0 0 0 0 0 0 0 0 0 0 0 0 0 0 0 0 0 0 0 0 0 0 0 0 0 0 0 0 0 0 0 0 0 0 0 0 0 0 0 0 0 2 3 6 4 8 10
922 922 857 839 741 657 688 753 840 900 877 803 795 928 991 847 633 448 301 283 257 185 112 0 0 0 0 0 0 0 0 0 0 0 0 0 0 0 0 0 0 0 0 0 0 0 0 0 0 0 0 0 0 0 0 0 0 0 0 0 0 0 0 0 0 0 0 0 0 0 0 0 0 0 0 0 0 0 1 3 6 12 16 18 18
889 924 835 733 706 605 597 651 750 786 780 789 687 712 853 528 354 369 428 381 265 138 0 0 0 0 0 0 0 0 0 0 0 0 0 0 0 0 0 0 0 0 0 0 0 0 0 0 0 0 0 0 0 0 0 0 0 0 0 0 0 0 0 0 0 0 0 0 0 0 0 0 0 0 0 0 0 1 4 7 11 14 16 18 20
832 846 875 803 727 632 598 674 750 819 734 633 579 502 346 366 479 494 460 273 163 2 14 16 11 0 0 0 0 0 0 0 0 0 0 0 0 0 0 0 0 0 0 0 0 0 0 0 0 0 0 0 0 0 0 0 0 0 0 0 0 0 0 0 0 0 0 0 0 0 0 0 0 0 0 0 0 2 4 5 6 8 8 8 9
916 891 824 779 764 705 607 642 688 706 484 362 332 265 234 267 443 360 247 104 0 3 11 11 0 0 0 0 0 0 0 0 0 0 0 0 0 0 0 0 0 0 0 0 0 0 0 0 0 0 0 0 0 0 0 0 0 0 0 0 0 0 0 0 0 0 0 0 0 0 0 0 0 0 0 0 0 0 0 0 0 0 1 2 7
905 863 826 757 798 786 687 639 642 554 241 282 362 288 312 233 156 145 30 0 1 3 4 0 0 0 0 0 0 0 0 0 0 0 0 0 0 0 0 0 0 0 0 0 0 0 0 0 0 0 0 0 0 0 0 0 0 0 0 0 0 0 0 0 0 0 0 0 0 0 0 0 0 0 0 0 0 0 0 0 0 1 3 4 8
877 926 766 726 632 614 760 681 544 334 254 238 228 231 230 85 67 24 3 3 1 0 0 0 0 0 0 0 0 0 0 0 0 0 0 0 0 0 0 0 0 0 0 0 0 0 0 0 0 0 0 0 0 0 0 0 0 0 0 0 0 0 0 0 0 0 0 0 0 0 0 0 0 0 0 0 0 0 0 2 4 8 8 9 12
783 885 752 873 835 728 667 571 428 315 261 174 152 99 50 27 10 4 2 0 0 0 0 0 0 0 0 0 0 0 0 0 0 0 0 0 0 0 0 0 0 0 0 0 0 0 0 0 0 0 0 0 0 0 0 0 0 0 0 0 0 0 0 0 0 0 0 0 0 0 0 0 0 0 0 0 0 2 5 2 0 1 2 6 13
650 544 469 649 638 662 702 512 246 109 91 90 15 0 0 0 1 1 0 0 0 0 0 0 0 0 0 0 0 0 0 0 0 0 0 0 0 0 0 0 0 0 0 0 0 0 0 0 0 0 0 0 0 0 0 0 0 0 0 0 0 0 0 0 0 0 0 0 0 0 0 0 0 0 0 0 2 8 4 0 0 0 0 9 15
580 505 453 383 317 455 411 232 104 46 16 0 2 1 2 3 5 6 1 0 0 0 0 0 0 0 0 0 0 0 0 0 0 0 0 0 0 0 0 0 0 0 0 0 0 0 0 0 0 0 0 0 0 0 0 0 0 0 0 0 0 0 0 0 0 0 0 0 0 0 0 0 0 0 0 4 10 8 4 4 5 6 21 32 28
405 358 348 222 198 131 69 75 39 21 0 2 5 10 10 11 9 6 2 1 0 0 0 0 0 0 0 0 0 0 0 0 0 0 0 0 0 0 0 0 0 0 0 0 0 0 0 0 0 0 0 0 0 0 0 0 0 0 0 0 0 0 0 0 0 0 0 0 0 0 0 0 0 0 4 11 16 9 5 11 26 38 35 34 35
319 253 113 177 150 120 12 0 13 3 1 2 6 7 11 9 5 2 0 0 0 0 0 0 0 0 0 0 0 0 0 0 0 0 0 0 0 0 0 0 0 0 0 0 0 0 0 0 0 0 0 0 0 0 0 0 0 0 0 0 0 0 0 0 0 0 0 0 0 0 0 0 0 2 10 14 15 9 12 29 33 36 42 38 40
224 133 23 0 0 2 0 3 4 1 5 6 10 10 3 1 0 0 0 0 0 0 0 0 0 0 0 0 0 0 0 0 0 0 0 0 0 0 0 0 0 0 0 0 0 0 0 0 0 0 0 0 0 0 0 0 0 0 0 0 0 0 0 0 0 0 0 0 0 0 0 0 0 4 11 9 4 9 11 16 23 32 35 34 31
Wind_Speed
25 22 21 20 19 17 15 17 17 17 15 15 16 17 19 19 18 19 20 17 17 15 15 15 16 16 15 15 15 15 15 15 14 15 15 15 16 19 21 21 21 19 19 18 19 20 21 23 23 23 22 24 23 23 24 25 25 25 25 23 23 23 25 23 18 13 15 21 19 17 16 17 16 18 14 16 16 15 15 14 13 13 13 13 13
24 22 22 24 21 18 18 19 18 17 15 15 15 17 20 21 22 22 20 17 17 16 15 16 16 16 15 16 16 15 16 15 15 16 16 17 18 18 21 22 21 21 21 22 22 21 22 22 22 21 22 22 22 22 22 22 21 20 20 20 19 20 20 21 16 16 12 15 13 14 13 15 13 15 14 13 12 12 11 11 12 12 11 11 11
23 23 24 25 21 21 23 21 20 18 16 16 16 19 22 22 25 24 21 23 30 27 22 19 16 16 17 18 17 16 16 17 18 18 18 18 19 21 22 22 22 22 23 23 22 22 23 22 21 21 21 21 21 20 20 20 20 18 15 16 16 17 18 17 17 15 13 12 14 12 13 12 12 10 11 12 12 11 10 10 10 10 11 10 10
25 23 23 24 22 24 25 23 21 20 17 18 20 22 23 23 26 30 37 37 33 32 33 25 17 17 20 21 21 21 20 20 20 20 21 22 23 23 22 21 21 22 22 22 22 23 23 23 21 20 20 20 20 18 17 17 18 17 15 14 14 15 16 16 15 15 15 12 13 12 11 10 9 10 11 11 11 10 11 10 10 10 9 9 10
25 23 24 24 24 23 25 26 24 22 21 24 24 25 27 31 42 43 39 31 31 28 21 16 19 21 24 23 24 22 21 21 23 24 25 25 26 24 22 21 22 22 20 21 22 23 22 21 20 20 20 20 18 17 16 15 16 15 14 13 14 13 14 15 14 15 13 11 10 11 10 10 11 9 11 10 9 10 11 11 10 9 9 10 10
26 25 26 25 23 22 24 26 25 24 26 28 27 30 37 42 39 36 31 26 24 21 16 18 24 23 23 23 24 23 21 23 25 27 27 27 26 25 23 26 22 22 21 21 22 21 21 19 19 20 20 19 17 16 15 14 14 14 13 13 13 13 13 13 14 14 13 11 9 9 10 9 9 10 10 11 9 8 9 10 12 13 13 12 11
25 25 26 25 24 22 23 25 27 27 28 31 33 37 41 36 34 30 23 24 24 22 22 29 27 23 25 25 24 24 25 27 29 29 27 24 24 24 24 24 24 22 21 21 20 20 19 18 19 21 21 19 17 15 15 14 13 13 13 13 13 12 12 12 12 12 12 11 12 11 9 11 12 10 11 12 12 14 12 12 13 15 16 nan 14
24 23 24 25 24 22 23 27 31 33 35 35 36 38 38 31 29 26 22 21 25 28 32 29 28 27 27 27 26 26 28 30 28 25 23 23 23 22 22 23 22 21 21 20 19 19 18 18 18 19 20 18 16 14 15 13 13 12 10 11 11 12 11 11 12 12 12 13 13 12 13 14 14 15 15 16 17 17 18 17 15 14 14 17 nan
24 22 25 26 25 24 28 33 37 38 37 35 35 37 35 29 25 23 22 24 30 31 29 30 30 30 28 28 27 26 28 29 26 25 26 25 24 23 22 22 21 21 21 20 20 19 19 18 18 18 17 16 13 13 13 12 13 10 9 11 11 12 12 12 13 13 14 15 14 15 15 16 16 16 16 18 17 15 15 18 18 16 16 nan nan
23 22 24 25 27 30 36 39 40 41 38 35 34 35 32 28 25 25 26 27 30 29 28 30 31 29 28 28 28 30 28 24 25 29 27 26 25 24 22 21 21 22 22 22 20 20 21 20 18 16 18 19 18 17 14 11 10 11 11 12 12 13 14 14 14 15 15 15 15 16 15 16 15 16 17 17 16 17 16 18 17 16 nan nan nan
26 25 24 30 33 37 43 43 42 40 40 37 31 30 29 28 29 31 32 28 27 27 27 28 28 28 27 26 28 28 23 23 28 29 28 28 26 23 21 20 20 21 22 23 23 23 23 23 21 23 21 18 15 15 14 14 14 13 11 11 13 15 16 15 14 15 16 16 17 16 16 15 15 16 nan 16 18 19 19 19 nan nan nan nan nan
28 27 28 32 38 44 45 44 40 37 33 29 30 31 30 30 30 28 26 22 24 26 25 24 25 26 25 24 25 26 26 28 29 28 26 25 25 22 21 20 21 22 22 22 23 24 24 23 21 19 18 16 nan nan nan nan 15 13 13 13 13 10 13 16 16 17 18 18 17 17 18 18 17 nan nan 21 20 nan 21 22 22 nan nan nan nan
34 34 36 37 43 47 44 37 32 27 22 27 32 31 31 31 29 25 22 22 24 24 24 25 25 24 24 25 25 25 25 27 28 28 26 25 23 23 21 20 22 22 22 23 24 24 23 22 nan nan nan nan nan nan nan nan nan 14 15 17 15 13 15 16 15 17 20 20 20 19 21 22 nan nan nan nan nan nan nan nan nan nan nan nan nan
33 32 34 42 45 40 36 31 25 22 29 38 33 32 32 28 27 27 27 26 25 24 25 26 26 25 25 26 25 25 25 27 26 25 24 21 20 22 21 21 22 23 23 24 25 24 22 21 nan nan nan nan nan nan nan nan nan nan 17 19 19 21 24 25 26 26 23 23 23 22 nan nan nan nan nan nan nan nan nan nan nan nan nan nan nan
28 33 38 38 34 28 23 21 21 27 37 39 34 30 30 30 31 29 29 28 26 26 27 28 28 28 28 28 26 26 26 27 24 23 23 22 20 22 21 22 24 25 25 25 24 23 21 20 nan nan nan nan nan nan nan nan nan nan nan 23 23 23 24 24 25 24 23 nan nan nan nan nan nan nan nan nan nan nan nan nan nan nan nan nan nan
24 26 29 26 23 20 19 23 28 30 31 31 31 31 32 31 29 28 28 28 28 29 28 28 28 29 28 28 27 26 24 25 23 24 22 19 18 21 21 23 26 27 26 nan 24 23 nan nan nan nan nan nan nan nan nan nan nan nan nan nan nan 26 27 26 nan nan 25 nan nan nan nan nan nan nan nan nan nan nan nan nan nan nan nan nan nan
19 21 23 24 24 20 22 26 27 26 28 27 28 29 29 28 26 24 24 22 23 23 25 27 28 27 27 26 26 23 21 21 22 21 18 18 20 21 23 26 27 27 25 24 nan nan nan nan nan nan nan nan nan nan nan nan nan nan nan nan nan nan nan nan nan nan nan nan nan nan nan nan nan nan nan nan nan nan nan nan nan nan nan nan nan
19 21 27 29 27 27 27 26 23 26 30 26 25 25 27 26 23 21 21 20 19 20 23 26 26 24 24 23 21 21 20 20 19 16 19 20 20 21 25 27 27 27 26 24 23 23 nan nan nan nan nan nan nan nan nan nan nan nan nan nan nan nan nan nan nan nan nan nan nan nan nan nan nan nan nan nan 33 37 nan nan nan nan nan nan nan
21 25 28 29 29 28 26 24 21 23 28 30 28 26 24 23 21 21 20 20 21 22 24 25 24 24 22 22 22 21 21 19 17 18 22 23 23 24 26 27 28 27 26 25 23 nan nan nan nan nan nan nan nan nan nan nan nan nan nan nan nan nan nan nan nan nan nan nan nan nan nan nan nan nan nan nan nan 35 nan nan nan nan nan nan nan
25 27 26 25 24 26 25 23 22 25 27 28 30 27 25 24 20 19 20 20 22 26 27 26 25 24 24 22 21 21 22 22 22 27 28 28 28 26 25 27 28 27 26 25 25 nan nan nan nan nan nan nan nan nan nan nan nan nan nan nan nan nan nan nan nan nan nan nan nan nan nan nan nan nan nan nan nan nan nan nan nan nan nan nan nan
22 22 24 24 23 24 23 23 26 30 29 26 25 25 23 21 20 19 22 25 29 30 28 24 23 22 23 22 21 22 22 24 24 28 30 30 30 29 25 26 26 27 26 25 25 nan nan nan nan nan nan nan nan nan nan nan nan nan nan nan nan nan nan nan nan nan nan nan nan nan nan nan nan nan nan nan nan nan nan nan nan nan nan nan nan
13 15 19 24 25 26 26 29 30 28 25 23 23 23 23 21 22 23 27 30 30 27 24 24 24 23 22 20 21 22 23 25 24 28 31 31 31 30 27 25 26 28 28 27 26 nan nan nan nan nan nan nan nan nan nan nan nan nan nan nan nan nan nan nan nan nan nan nan nan nan nan nan nan nan nan nan nan nan nan nan nan nan nan nan nan
12 14 18 22 25 26 26 28 28 25 20 17 23 26 27 28 27 25 27 29 27 22 22 25 24 22 21 20 21 nan 23 24 26 27 31 33 33 32 32 29 30 29 30 nan nan nan nan nan nan nan nan nan nan nan nan nan nan nan nan nan nan nan nan nan nan nan nan nan nan nan nan nan nan nan nan nan nan nan nan nan nan nan nan nan nan
13 15 18 21 25 25 23 22 22 23 22 20 22 25 26 21 19 22 23 23 21 20 22 23 21 21 20 nan nan nan nan 25 28 31 nan nan nan nan 35 34 32 nan nan nan nan nan nan nan nan nan nan nan nan nan nan nan nan nan nan nan nan nan nan nan nan nan nan nan nan nan nan nan nan nan nan nan nan nan nan nan nan nan nan nan nan
13 15 17 20 23 24 21 17 16 17 20 21 23 23 19 18 19 17 18 17 18 21 20 20 21 20 nan nan nan nan nan nan nan nan nan nan nan nan nan nan nan nan nan nan nan nan nan nan nan nan nan nan nan nan nan nan nan nan nan nan nan nan nan nan nan nan nan nan nan nan nan nan nan nan nan nan nan nan nan nan nan nan nan nan nan
12 15 17 18 19 22 21 16 13 16 20 20 19 16 15 17 17 15 15 14 15 19 20 19 19 19 nan nan nan nan nan nan nan nan 31 nan nan nan nan nan 37 36 nan nan nan nan nan nan nan nan nan nan nan nan nan nan nan nan nan nan nan nan nan nan nan nan nan nan nan nan nan nan nan nan nan nan nan nan nan nan nan nan nan nan nan
11 14 16 19 22 21 22 18 18 20 22 21 19 17 15 14 14 14 14 14 14 18 19 18 18 17 nan nan nan nan nan 27 27 28 nan nan nan nan nan nan nan nan nan nan nan nan nan nan nan nan nan nan nan nan nan nan nan nan nan nan nan nan nan nan nan nan nan nan nan nan nan nan nan nan nan nan nan nan nan nan nan nan nan nan nan
12 13 17 16 17 19 20 21 21 21 23 23 22 19 15 14 11 11 11 11 14 16 16 17 17 18 nan nan nan nan 26 27 28 nan nan nan nan nan nan nan nan nan nan nan 30 31 33 nan nan nan nan nan nan nan nan nan nan nan nan nan nan nan nan nan nan nan nan nan nan nan nan nan nan nan nan nan nan nan nan nan nan nan nan nan nan
11 13 15 16 12 11 13 16 17 23 25 25 24 23 21 18 15 15 15 14 13 15 17 18 18 19 nan nan nan nan 26 27 nan nan nan nan nan nan nan nan nan nan nan nan nan nan nan nan nan nan nan nan nan nan nan nan nan nan nan nan nan nan nan nan nan nan nan nan nan nan nan nan nan nan nan nan nan nan nan nan nan nan nan nan nan
10 13 14 16 17 16 13 14 19 22 23 22 23 26 30 29 21 16 14 17 18 15 18 18 19 22 25 25 25 26 27 nan nan nan nan nan nan nan nan nan nan nan nan nan nan nan nan nan nan nan nan nan nan nan nan nan nan nan nan nan nan nan nan nan nan nan nan nan nan nan nan nan nan nan nan nan nan nan nan nan nan nan nan nan nan
8 10 13 15 18 19 18 16 16 15 13 15 18 20 20 24 29 29 25 21 18 26 26 28 29 27 29 29 33 38 nan nan nan nan nan nan nan nan nan nan nan nan nan nan nan nan nan nan nan nan nan nan nan nan nan nan nan nan nan nan nan nan nan nan nan nan nan nan nan nan nan nan nan nan nan nan nan nan nan nan nan nan nan nan nan
7 9 12 13 17 16 14 14 14 13 10 11 15 18 19 19 21 28 31 30 31 33 33 33 34 33 33 34 nan nan nan nan nan nan nan nan nan nan nan nan nan nan nan nan nan nan nan nan nan nan nan nan nan nan nan nan nan nan nan nan nan nan nan nan nan nan nan nan nan nan nan nan nan nan nan nan nan nan nan nan nan nan nan nan nan
7 9 12 15 15 16 14 14 13 13 14 14 15 17 20 20 21 20 23 29 34 35 33 33 34 34 34 nan nan nan nan nan nan nan nan nan nan nan nan nan nan nan nan nan nan nan nan nan nan nan nan nan nan nan nan nan nan nan nan nan nan nan nan nan nan nan nan nan nan nan nan nan nan nan nan nan nan nan nan nan nan nan nan nan nan
10 13 14 16 17 16 15 13 13 13 14 14 15 18 20 22 21 21 20 19 26 31 35 35 35 37 nan nan nan nan nan nan nan nan nan nan nan nan nan nan nan nan nan nan nan nan nan nan nan nan nan nan nan nan nan nan nan nan nan nan nan nan nan nan nan nan nan nan nan nan nan nan nan nan nan nan nan nan nan nan nan nan nan nan nan
12 14 20 19 20 20 18 16 15 15 15 15 15 19 21 21 21 21 21 22 24 26 26 29 30 nan nan nan nan nan nan nan nan nan nan nan nan nan nan nan nan nan nan nan nan nan nan nan nan nan nan nan nan nan nan nan nan nan nan nan nan nan nan nan nan nan nan nan nan nan nan nan nan nan nan nan nan nan nan nan nan nan nan nan nan
14 14 16 18 20 22 23 22 21 21 20 19 17 20 22 23 24 24 23 23 25 26 26 26 nan nan nan nan nan nan nan nan nan nan nan nan nan nan nan nan nan nan nan nan nan nan nan nan nan nan nan nan nan nan nan nan nan nan nan nan nan nan nan nan nan nan nan nan nan nan nan nan nan nan nan nan nan nan nan nan nan nan nan nan nan
15 15 15 15 17 21 24 25 25 24 23 22 21 21 23 26 26 25 25 24 24 24 26 nan nan nan nan nan nan nan nan nan nan nan nan nan nan nan nan nan nan nan nan nan nan nan nan nan nan nan nan nan nan nan nan nan nan nan nan nan nan nan nan nan nan nan nan nan nan nan nan nan nan nan nan nan nan nan nan nan nan nan nan nan nan
18 18 18 17 20 23 25 26 27 28 25 24 23 23 23 24 25 24 24 24 25 25 25 24 nan nan nan nan nan nan nan nan nan nan nan nan nan nan nan nan nan nan nan nan nan nan nan nan nan nan nan nan nan nan nan nan nan nan nan nan nan nan nan nan nan nan nan nan nan nan nan nan nan nan nan nan nan nan nan nan nan nan nan nan nan
22 23 23 24 25 27 28 28 27 26 26 27 25 22 21 22 24 24 24 25 25 24 24 23 nan nan nan nan nan nan nan nan nan nan nan nan nan nan nan nan nan nan nan nan nan nan nan nan nan nan nan nan nan nan nan nan nan nan nan nan nan nan nan nan nan nan nan nan nan nan nan nan nan nan nan nan nan nan nan nan nan nan nan nan nan
22 23 25 29 26 28 29 30 28 27 28 29 26 21 22 24 25 25 25 25 24 23 22 nan nan nan nan nan nan nan nan nan nan nan nan nan nan nan nan nan nan nan nan nan nan nan nan nan nan nan nan nan nan nan nan nan nan nan nan nan nan nan nan nan nan nan nan nan nan nan nan nan nan nan nan nan nan nan nan nan nan nan nan nan nan
22 22 25 27 28 29 30 30 30 29 28 26 24 23 24 26 25 25 25 24 23 22 nan nan nan nan nan nan nan nan nan nan nan nan nan nan nan nan nan nan nan nan nan nan nan nan nan nan nan nan nan nan nan nan nan nan nan nan nan nan nan nan nan nan nan nan nan nan nan nan nan nan nan nan nan nan nan nan nan nan nan nan nan nan nan
22 21 23 25 28 29 29 29 28 28 26 24 24 24 24 26 28 28 27 25 23 nan nan nan nan nan nan nan nan nan nan nan nan nan nan nan nan nan nan nan nan nan nan nan nan nan nan nan nan nan nan nan nan nan nan nan nan nan nan nan nan nan nan nan nan nan nan nan nan nan nan nan nan nan nan nan nan nan nan nan nan nan nan nan nan
23 22 22 25 28 29 27 26 27 27 27 25 23 22 22 25 31 31 29 26 nan nan nan nan nan nan nan nan nan nan nan nan nan nan nan nan nan nan nan nan nan nan nan nan nan nan nan nan nan nan nan nan nan nan nan nan nan nan nan nan nan nan nan nan nan nan nan nan nan nan nan nan nan nan nan nan nan nan nan nan nan nan nan nan nan
20 22 24 26 26 27 25 24 25 25 26 26 25 24 24 28 31 31 nan nan nan nan nan nan nan nan nan nan nan nan nan nan nan nan nan nan nan nan nan nan nan nan nan nan nan nan nan nan nan nan nan nan nan nan nan nan nan nan nan nan nan nan nan nan nan nan nan nan nan nan nan nan nan nan nan nan nan nan nan nan nan nan nan nan nan
19 23 26 26 24 25 25 24 25 24 25 26 27 27 29 nan nan nan nan nan nan nan nan nan nan nan nan nan nan nan nan nan nan nan nan nan nan nan nan nan nan nan nan nan nan nan nan nan nan nan nan nan nan nan nan nan nan nan nan nan nan nan nan nan nan nan nan nan nan nan nan nan nan nan nan nan nan nan nan nan nan nan nan nan nan
22 24 25 24 25 25 26 25 25 24 25 29 32 nan nan nan nan nan nan nan nan nan nan nan nan nan nan nan nan nan nan nan nan nan nan nan nan nan nan nan nan nan nan nan nan nan nan nan nan nan nan nan nan nan nan nan nan nan nan nan nan nan nan nan nan nan nan nan nan nan nan nan nan nan nan nan nan nan nan nan nan nan nan nan nan
24 23 23 26 28 27 26 26 26 27 nan nan nan nan nan nan nan nan nan nan nan nan nan nan nan nan nan nan nan nan nan nan nan nan nan nan nan nan nan nan nan nan nan nan nan nan nan nan nan nan nan nan nan nan nan nan nan nan nan nan nan nan nan nan nan nan nan nan nan nan nan nan nan nan nan nan nan nan nan nan nan nan nan nan nan
24 24 25 27 27 29 30 31 30 nan nan nan nan nan nan nan nan nan nan nan nan nan nan nan nan nan nan nan nan nan nan nan nan nan nan nan nan nan nan nan nan nan nan nan nan nan nan nan nan nan nan nan nan nan nan nan nan nan nan nan nan nan nan nan nan nan nan nan nan nan nan nan nan nan nan nan nan nan nan nan nan nan nan nan nan
25 26 24 26 29 30 nan nan nan nan nan nan nan nan nan nan nan nan nan nan nan nan nan nan nan nan nan nan nan nan nan nan nan nan nan nan nan nan nan nan nan nan nan nan nan nan nan nan nan nan nan nan nan nan nan nan nan nan nan nan nan nan nan nan nan nan nan nan nan nan nan nan nan nan nan nan nan nan nan nan nan nan nan nan nan
27 28 27 28 32 33 nan nan nan nan nan nan nan nan nan nan nan nan nan nan nan nan nan nan nan nan nan nan nan nan nan nan nan nan nan nan nan nan nan nan nan nan nan nan nan nan nan nan nan nan nan nan nan nan nan nan nan nan nan nan nan nan nan nan nan nan nan nan nan nan nan nan nan nan nan nan nan nan nan nan nan nan nan nan nan
30 33 nan nan nan nan nan nan nan nan nan nan nan nan nan nan nan nan nan nan nan nan nan nan nan nan nan nan nan nan nan nan nan nan nan nan nan nan nan nan nan nan nan nan nan nan nan nan nan nan nan nan nan nan nan nan nan nan nan nan nan nan nan nan nan nan nan nan nan nan nan nan nan nan nan nan nan nan nan nan nan nan nan nan nan
Wind_Direction
259 257 251 245 243 247 246 247 249 248 249 253 253 251 250 248 244 240 237 236 242 251 257 262 260 258 259 257 259 262 263 263 266 270 271 271 273 275 274 276 277 278 281 281 278 281 284 287 288 290 292 292 292 292 291 290 287 286 287 287 290 292 292 293 295 289 276 285 291 290 284 278 280 289 289 291 293 296 301 308 309 310 311 310 308
259 258 251 248 248 247 249 251 255 255 256 252 256 255 250 245 239 234 230 231 241 247 254 255 258 263 262 262 264 264 262 265 264 265 266 262 263 269 275 276 276 278 280 281 281 284 292 296 299 301 301 301 301 300 298 297 294 292 295 298 300 297 296 293 296 287 282 276 278 282 283 285 288 292 292 285 289 295 299 304 311 314 318 317 316
256 254 253 253 250 243 244 249 256 259 256 248 248 249 246 243 240 237 231 232 229 226 227 232 248 256 260 264 265 261 259 260 264 268 267 269 271 269 270 274 279 282 283 287 292 297 297 299 301 305 304 301 301 301 302 303 301 302 302 298 298 295 294 296 292 290 288 284 287 279 284 280 287 286 283 293 299 301 303 305 306 309 314 316 319
247 247 249 251 249 242 240 243 252 255 252 244 241 242 243 239 236 231 225 227 230 226 213 199 223 247 253 257 254 253 251 255 259 262 266 267 268 270 271 273 276 279 285 291 294 296 297 297 302 305 304 302 300 300 302 302 303 301 299 295 294 292 293 296 298 295 288 284 283 282 288 285 291 295 293 294 300 299 306 309 307 308 308 306 308
244 243 244 248 246 243 239 239 245 249 247 241 240 241 240 235 232 238 242 233 235 238 238 217 225 237 248 254 258 258 258 261 260 258 259 262 267 271 274 277 275 280 289 294 297 295 296 300 302 302 299 300 298 297 297 298 300 302 301 297 298 296 296 300 302 298 297 296 288 293 294 301 305 300 295 288 289 300 305 305 302 295 291 293 295
236 241 241 245 245 243 241 238 239 243 244 241 241 240 239 240 245 247 256 258 258 264 259 248 240 246 250 255 258 260 259 258 258 259 260 262 266 270 274 275 284 292 290 293 294 295 295 298 298 297 297 297 296 295 295 297 295 297 296 295 298 299 300 299 300 298 298 301 298 290 289 284 283 291 293 289 288 288 287 291 292 293 290 284 288
228 235 239 244 244 244 245 243 240 239 240 241 240 241 245 248 249 253 256 265 271 270 257 244 245 244 253 256 255 255 255 253 252 253 257 263 268 269 270 278 282 283 286 289 289 288 290 292 294 295 295 296 296 296 297 294 291 294 298 298 300 299 296 297 295 292 294 292 293 295 289 290 291 278 280 280 289 294 288 282 280 286 289 nan 285
234 232 238 242 243 245 247 246 242 239 238 238 241 245 249 248 251 254 253 251 253 252 250 251 250 248 247 253 257 257 258 258 261 266 270 269 268 269 272 275 279 283 287 286 285 286 290 291 292 294 295 295 296 296 297 294 290 291 291 291 294 296 295 293 291 290 288 286 287 283 288 285 279 290 289 283 279 281 285 287 281 277 276 285 nan
229 227 235 239 240 241 243 244 243 243 243 244 246 248 250 253 252 253 253 249 247 249 252 254 257 254 254 260 263 261 261 265 268 272 271 269 269 272 274 276 281 285 285 284 285 288 287 290 291 290 291 293 295 294 298 300 296 290 288 290 289 292 291 288 290 290 290 290 290 292 287 283 285 282 276 280 277 283 286 287 292 291 288 nan nan
217 218 231 238 237 237 238 240 242 243 245 246 248 252 256 260 261 257 252 249 249 251 251 254 258 262 264 264 262 257 255 258 269 277 274 271 271 272 276 281 282 282 282 283 284 285 288 287 284 288 281 272 269 268 265 266 273 291 298 295 294 295 296 295 298 296 295 293 290 286 283 281 281 282 287 291 292 291 286 285 283 284 nan nan nan
207 204 215 226 230 234 234 234 240 243 244 246 250 256 259 258 257 255 255 253 255 255 258 262 260 260 263 265 263 263 264 264 276 274 277 281 274 276 280 281 279 281 282 284 284 281 276 276 272 268 263 255 253 247 248 249 255 260 266 281 305 312 306 308 306 303 301 298 291 287 288 288 287 289 nan 290 290 289 291 286 nan nan nan nan nan
205 198 207 225 231 233 235 231 229 231 241 247 246 247 252 253 254 260 267 269 259 255 260 263 260 258 257 258 257 258 258 265 271 273 270 276 280 276 277 279 282 283 283 282 280 278 278 273 269 265 263 262 nan nan nan nan 252 255 260 261 255 265 313 313 307 300 300 298 294 293 294 294 291 nan nan 286 285 nan 286 285 288 nan nan nan nan
221 208 205 215 230 236 238 242 245 246 248 251 244 245 248 250 252 256 260 258 255 256 259 260 259 256 255 257 258 258 258 263 264 266 266 266 280 281 273 279 282 281 280 277 275 277 277 272 nan nan nan nan nan nan nan nan nan 249 251 252 254 256 290 303 298 296 299 298 296 294 296 296 nan nan nan nan nan nan nan nan nan nan nan nan nan
245 237 221 219 228 233 241 248 255 255 249 242 240 240 244 250 253 252 252 252 255 255 255 257 255 256 257 260 260 257 254 258 255 258 258 261 262 266 272 277 277 277 276 273 273 275 274 272 nan nan nan nan nan nan nan nan nan nan 269 271 274 265 268 271 276 289 296 300 299 298 nan nan nan nan nan nan nan nan nan nan nan nan nan nan nan
249 255 248 238 239 242 252 257 248 240 242 244 243 243 244 245 249 252 253 256 258 258 258 257 255 256 257 257 256 253 250 249 246 250 249 248 256 265 268 269 269 267 265 264 266 269 269 269 nan nan nan nan nan nan nan nan nan nan nan 278 277 279 279 280 284 288 290 nan nan nan nan nan nan nan nan nan nan nan nan nan nan nan nan nan nan
240 254 261 265 265 263 259 248 235 234 243 247 245 242 239 242 249 249 250 250 248 249 248 252 256 255 254 254 252 250 243 240 240 243 248 255 266 261 265 267 266 265 262 nan 262 262 nan nan nan nan nan nan nan nan nan nan nan nan nan nan nan 280 280 280 nan nan 287 nan nan nan nan nan nan nan nan nan nan nan nan nan nan nan nan nan nan
247 245 252 255 253 250 245 243 236 233 236 242 241 240 241 241 244 247 252 253 254 253 250 248 250 254 254 253 254 252 252 245 245 248 252 263 265 265 264 266 268 265 260 260 nan nan nan nan nan nan nan nan nan nan nan nan nan nan nan nan nan nan nan nan nan nan nan nan nan nan nan nan nan nan nan nan nan nan nan nan nan nan nan nan nan
235 234 232 237 242 243 240 240 239 234 235 241 241 240 240 239 245 252 258 256 253 253 249 246 247 251 254 257 256 259 257 251 249 254 265 268 269 267 269 271 267 264 260 256 257 259 nan nan nan nan nan nan nan nan nan nan nan nan nan nan nan nan nan nan nan nan nan nan nan nan nan nan nan nan nan nan 290 296 nan nan nan nan nan nan nan
237 235 236 235 235 239 241 241 240 235 231 229 231 242 245 245 246 247 249 252 251 249 249 247 244 241 244 250 263 258 254 251 250 262 270 268 264 267 270 268 266 264 265 261 257 nan nan nan nan nan nan nan nan nan nan nan nan nan nan nan nan nan nan nan nan nan nan nan nan nan nan nan nan nan nan nan nan 289 nan nan nan nan nan nan nan
246 248 249 248 244 241 242 241 237 237 240 237 233 231 236 243 250 256 256 254 251 246 240 234 236 237 238 243 243 247 252 247 244 254 260 262 264 264 266 267 268 268 267 268 266 nan nan nan nan nan nan nan nan nan nan nan nan nan nan nan nan nan nan nan nan nan nan nan nan nan nan nan nan nan nan nan nan nan nan nan nan nan nan nan nan
261 266 267 265 261 256 250 247 241 233 233 241 249 247 235 234 245 253 257 251 247 241 240 236 234 233 237 239 242 242 248 251 246 251 254 256 260 262 262 267 269 270 269 267 267 nan nan nan nan nan nan nan nan nan nan nan nan nan nan nan nan nan nan nan nan nan nan nan nan nan nan nan nan nan nan nan nan nan nan nan nan nan nan nan nan
277 272 263 259 257 254 250 250 251 245 239 244 250 248 243 236 231 231 237 244 243 242 244 245 239 237 239 240 243 245 248 253 251 247 250 251 252 259 263 266 270 271 268 268 268 nan nan nan nan nan nan nan nan nan nan nan nan nan nan nan nan nan nan nan nan nan nan nan nan nan nan nan nan nan nan nan nan nan nan nan nan nan nan nan nan
271 274 265 258 255 257 261 265 261 252 250 253 251 248 241 232 227 221 231 240 239 241 243 242 241 246 247 242 241 nan 243 244 248 247 246 249 251 253 262 264 266 266 271 nan nan nan nan nan nan nan nan nan nan nan nan nan nan nan nan nan nan nan nan nan nan nan nan nan nan nan nan nan nan nan nan nan nan nan nan nan nan nan nan nan nan
274 274 269 261 256 260 269 271 262 255 258 257 251 249 246 244 239 243 248 254 252 252 252 250 250 258 259 nan nan nan nan 243 243 246 nan nan nan nan 261 265 267 nan nan nan nan nan nan nan nan nan nan nan nan nan nan nan nan nan nan nan nan nan nan nan nan nan nan nan nan nan nan nan nan nan nan nan nan nan nan nan nan nan nan nan nan
283 283 275 265 268 273 273 265 261 265 265 261 254 251 253 250 244 242 251 256 257 256 256 261 265 269 nan nan nan nan nan nan nan nan nan nan nan nan nan nan nan nan nan nan nan nan nan nan nan nan nan nan nan nan nan nan nan nan nan nan nan nan nan nan nan nan nan nan nan nan nan nan nan nan nan nan nan nan nan nan nan nan nan nan nan
300 303 291 282 280 280 277 276 276 269 266 266 267 262 261 255 254 255 256 257 255 263 270 271 272 271 nan nan nan nan nan nan nan nan 250 nan nan nan nan nan 270 271 nan nan nan nan nan nan nan nan nan nan nan nan nan nan nan nan nan nan nan nan nan nan nan nan nan nan nan nan nan nan nan nan nan nan nan nan nan nan nan nan nan nan nan
303 307 303 298 294 290 284 273 267 269 270 270 266 260 248 250 256 254 251 253 255 260 267 272 270 269 nan nan nan nan nan 244 246 249 nan nan nan nan nan nan nan nan nan nan nan nan nan nan nan nan nan nan nan nan nan nan nan nan nan nan nan nan nan nan nan nan nan nan nan nan nan nan nan nan nan nan nan nan nan nan nan nan nan nan nan
299 302 302 299 300 298 286 285 276 265 263 263 265 262 249 242 243 256 262 261 258 260 264 266 267 267 nan nan nan nan 247 246 250 nan nan nan nan nan nan nan nan nan nan nan 276 279 281 nan nan nan nan nan nan nan nan nan nan nan nan nan nan nan nan nan nan nan nan nan nan nan nan nan nan nan nan nan nan nan nan nan nan nan nan nan nan
307 310 319 317 304 296 290 285 287 286 271 254 241 233 225 220 227 227 207 214 245 262 261 260 263 265 nan nan nan nan 256 257 nan nan nan nan nan nan nan nan nan nan nan nan nan nan nan nan nan nan nan nan nan nan nan nan nan nan nan nan nan nan nan nan nan nan nan nan nan nan nan nan nan nan nan nan nan nan nan nan nan nan nan nan nan
329 333 336 333 323 316 308 311 311 300 280 262 253 240 231 231 222 225 222 215 218 244 264 268 271 267 260 249 252 265 265 nan nan nan nan nan nan nan nan nan nan nan nan nan nan nan nan nan nan nan nan nan nan nan nan nan nan nan nan nan nan nan nan nan nan nan nan nan nan nan nan nan nan nan nan nan nan nan nan nan nan nan nan nan nan
330 328 333 338 336 332 330 327 326 312 289 269 260 255 246 232 229 228 231 221 245 260 257 260 263 265 265 258 244 248 nan nan nan nan nan nan nan nan nan nan nan nan nan nan nan nan nan nan nan nan nan nan nan nan nan nan nan nan nan nan nan nan nan nan nan nan nan nan nan nan nan nan nan nan nan nan nan nan nan nan nan nan nan nan nan
322 325 327 330 330 331 326 323 321 315 300 280 267 258 255 260 246 231 228 232 231 246 255 255 255 257 266 268 nan nan nan nan nan nan nan nan nan nan nan nan nan nan nan nan nan nan nan nan nan nan nan nan nan nan nan nan nan nan nan nan nan nan nan nan nan nan nan nan nan nan nan nan nan nan nan nan nan nan nan nan nan nan nan nan nan
304 309 317 318 319 320 318 318 315 311 305 296 279 262 263 273 276 262 233 232 236 234 238 248 254 260 263 nan nan nan nan nan nan nan nan nan nan nan nan nan nan nan nan nan nan nan nan nan nan nan nan nan nan nan nan nan nan nan nan nan nan nan nan nan nan nan nan nan nan nan nan nan nan nan nan nan nan nan nan nan nan nan nan nan nan
309 310 310 308 306 306 309 308 305 297 289 286 281 269 263 269 279 280 272 258 242 232 230 236 249 257 nan nan nan nan nan nan nan nan nan nan nan nan nan nan nan nan nan nan nan nan nan nan nan nan nan nan nan nan nan nan nan nan nan nan nan nan nan nan nan nan nan nan nan nan nan nan nan nan nan nan nan nan nan nan nan nan nan nan nan
303 308 314 306 301 301 298 297 294 286 283 278 271 266 261 262 269 276 279 273 264 258 255 247 244 nan nan nan nan nan nan nan nan nan nan nan nan nan nan nan nan nan nan nan nan nan nan nan nan nan nan nan nan nan nan nan nan nan nan nan nan nan nan nan nan nan nan nan nan nan nan nan nan nan nan nan nan nan nan nan nan nan nan nan nan
304 303 305 307 301 299 297 297 292 287 284 279 271 264 264 265 267 270 270 269 269 266 257 254 nan nan nan nan nan nan nan nan nan nan nan nan nan nan nan nan nan nan nan nan nan nan nan nan nan nan nan nan nan nan nan nan nan nan nan nan nan nan nan nan nan nan nan nan nan nan nan nan nan nan nan nan nan nan nan nan nan nan nan nan nan
291 293 296 297 295 290 290 289 285 279 274 275 273 265 261 263 267 271 274 275 272 266 265 nan nan nan nan nan nan nan nan nan nan nan nan nan nan nan nan nan nan nan nan nan nan nan nan nan nan nan nan nan nan nan nan nan nan nan nan nan nan nan nan nan nan nan nan nan nan nan nan nan nan nan nan nan nan nan nan nan nan nan nan nan nan
273 278 279 284 286 288 286 284 280 274 270 271 269 268 268 270 273 276 279 279 278 277 274 271 nan nan nan nan nan nan nan nan nan nan nan nan nan nan nan nan nan nan nan nan nan nan nan nan nan nan nan nan nan nan nan nan nan nan nan nan nan nan nan nan nan nan nan nan nan nan nan nan nan nan nan nan nan nan nan nan nan nan nan nan nan
268 275 287 294 297 297 294 289 281 270 271 274 270 266 271 278 279 278 280 280 279 278 276 270 nan nan nan nan nan nan nan nan nan nan nan nan nan nan nan nan nan nan nan nan nan nan nan nan nan nan nan nan nan nan nan nan nan nan nan nan nan nan nan nan nan nan nan nan nan nan nan nan nan nan nan nan nan nan nan nan nan nan nan nan nan
286 296 303 308 300 297 292 290 279 272 279 285 275 263 272 283 284 283 284 285 283 280 275 nan nan nan nan nan nan nan nan nan nan nan nan nan nan nan nan nan nan nan nan nan nan nan nan nan nan nan nan nan nan nan nan nan nan nan nan nan nan nan nan nan nan nan nan nan nan nan nan nan nan nan nan nan nan nan nan nan nan nan nan nan nan
303 308 304 300 291 290 288 286 280 277 276 274 270 270 273 277 278 281 283 282 279 274 nan nan nan nan nan nan nan nan nan nan nan nan nan nan nan nan nan nan nan nan nan nan nan nan nan nan nan nan nan nan nan nan nan nan nan nan nan nan nan nan nan nan nan nan nan nan nan nan nan nan nan nan nan nan nan nan nan nan nan nan nan nan nan
298 293 287 284 289 289 289 286 282 280 276 270 268 265 263 269 277 284 283 281 280 nan nan nan nan nan nan nan nan nan nan nan nan nan nan nan nan nan nan nan nan nan nan nan nan nan nan nan nan nan nan nan nan nan nan nan nan nan nan nan nan nan nan nan nan nan nan nan nan nan nan nan nan nan nan nan nan nan nan nan nan nan nan nan nan
294 295 291 287 287 289 289 287 286 283 275 270 269 265 260 264 275 281 281 281 nan nan nan nan nan nan nan nan nan nan nan nan nan nan nan nan nan nan nan nan nan nan nan nan nan nan nan nan nan nan nan nan nan nan nan nan nan nan nan nan nan nan nan nan nan nan nan nan nan nan nan nan nan nan nan nan nan nan nan nan nan nan nan nan nan
300 296 289 282 280 282 284 287 286 282 274 272 273 273 267 261 265 273 nan nan nan nan nan nan nan nan nan nan nan nan nan nan nan nan nan nan nan nan nan nan nan nan nan nan nan nan nan nan nan nan nan nan nan nan nan nan nan nan nan nan nan nan nan nan nan nan nan nan nan nan nan nan nan nan nan nan nan nan nan nan nan nan nan nan nan
291 281 275 277 282 286 286 283 280 277 273 273 274 270 263 nan nan nan nan nan nan nan nan nan nan nan nan nan nan nan nan nan nan nan nan nan nan nan nan nan nan nan nan nan nan nan nan nan nan nan nan nan nan nan nan nan nan nan nan nan nan nan nan nan nan nan nan nan nan nan nan nan nan nan nan nan nan nan nan nan nan nan nan nan nan
270 273 284 288 288 282 280 280 280 274 269 269 270 nan nan nan nan nan nan nan nan nan nan nan nan nan nan nan nan nan nan nan nan nan nan nan nan nan nan nan nan nan nan nan nan nan nan nan nan nan nan nan nan nan nan nan nan nan nan nan nan nan nan nan nan nan nan nan nan nan nan nan nan nan nan nan nan nan nan nan nan nan nan nan nan
275 277 277 281 282 278 272 271 269 268 nan nan nan nan nan nan nan nan nan nan nan nan nan nan nan nan nan nan nan nan nan nan nan nan nan nan nan nan nan nan nan nan nan nan nan nan nan nan nan nan nan nan nan nan nan nan nan nan nan nan nan nan nan nan nan nan nan nan nan nan nan nan nan nan nan nan nan nan nan nan nan nan nan nan nan
260 265 273 275 270 269 267 264 261 nan nan nan nan nan nan nan nan nan nan nan nan nan nan nan nan nan nan nan nan nan nan nan nan nan nan nan nan nan nan nan nan nan nan nan nan nan nan nan nan nan nan nan nan nan nan nan nan nan nan nan nan nan nan nan nan nan nan nan nan nan nan nan nan nan nan nan nan nan nan nan nan nan nan nan nan
264 264 265 266 264 260 nan nan nan nan nan nan nan nan nan nan nan nan nan nan nan nan nan nan nan nan nan nan nan nan nan nan nan nan nan nan nan nan nan nan nan nan nan nan nan nan nan nan nan nan nan nan nan nan nan nan nan nan nan nan nan nan nan nan nan nan nan nan nan nan nan nan nan nan nan nan nan nan nan nan nan nan nan nan nan
264 262 263 263 261 256 nan nan nan nan nan nan nan nan nan nan nan nan nan nan nan nan nan nan nan nan nan nan nan nan nan nan nan nan nan nan nan nan nan nan nan nan nan nan nan nan nan nan nan nan nan nan nan nan nan nan nan nan nan nan nan nan nan nan nan nan nan nan nan nan nan nan nan nan nan nan nan nan nan nan nan nan nan nan nan
261 264 nan nan nan nan nan nan nan nan nan nan nan nan nan nan nan nan nan nan nan nan nan nan nan nan nan nan nan nan nan nan nan nan nan nan nan nan nan nan nan nan nan nan nan nan nan nan nan nan nan nan nan nan nan nan nan nan nan nan nan nan nan nan nan nan nan nan nan nan nan nan nan nan nan nan nan nan nan nan nan nan nan nan nan